"Pseudo-MPEC" for P20Uhms

Created 2019 Nov 13 9:07:18 UT using Find_Orb

Click here for an explanation of pseudo-MPECs

 
 Astrometry: 
     P20Uhms  C2019 11 08%4BT+%5tX:bA@17Wm_XP@FCZAstrometry@\dnsC)oQhNf=,%MFjF52
     P20Uhms  C2019 11 08X]7qUIGuredacted;oDVit^S=AHncwZ]`_1aO)sg@jBj7_\NOHgpF52
     P20Uhms  C2019 11 08e.rclick3qoGRSa7gGuTBev2#nK9BUDA%cOxP!mwS_jra1@]eNYdF52
     P20Uhms  C2019 11 08yraT(+u-I%here+ySw3S\#Lw5F4Tb7JjJ5CCvQK[M2*,*fq[y$q*F52
     P20Uhms  C2019 11 08nk*]FNJfor6x_4u5eFql3UxQ9dtcZE@eneoQep%6,WO@Se`S6RfkF52
     P20Uhms  C2019 11 08Qq_osY3TYSsMrB$^8]NE:#?GBY!X2g$c_cX2vk@Ux9(K\`ctw7slF52
     P20Uhms KC2019 11 09.49186 05 16 48.38 -01 15 18.7    ~BBH7 21.2 RoNEOCP291
     P20Uhms KC2019 11 09.49658 05 16 47.43 -01 15 21.2    ~BBH7 20.8 RoNEOCP291
     P20Uhms |C2019 11 10nm9kLn#^\'!uD4-AY(P2A3]WM,KkYq9d*-Y.EoiGj45Q/HY9ZULq807
     P20Uhms |C2019 11 10fqL%b,vVf``ssH?h8@X/diexplanationWC(lRU=s/iE4++dar$H807
     P20Uhms |C2019 11 10ExJdf^yBmce%`nKm#hf2We=qd$Chh@QS-mk`j_IUc#iVZWBli.F,807

Station data:
(291) LPL/Spacewatch II  (N31.961669 W111.599905)  US/Arizona.  Observers J.
   V. Scotti, R. S. McMillan. 1.8-m f/2.7 reflector + CCD.
(807) Cerro Tololo Observatory, La Serena  (S30.169136 W70.805900)  Chile.
(F52) Pan-STARRS 2, Haleakala  (N20.707384 W156.255910)  US/Hawaii. 1.8-m
   Ritchey-Chrétien + CCD.

Orbital elements:  P20Uhms
   Perihelion 2020 Feb 26.231457 +/- 0.356 TT =  5:33:17 (JD 2458905.731457)
Epoch 2019 Nov 10.0 TT = JDT 2458797.5   Earth MOID: 0.0096   Ve: 0.0620
M 222.49660379 +/- 0.36             Me: 0.0533                AutoNEOCP
n   1.27045685 +/- 0.000868         Peri.  137.73501 +/- 0.06
a   0.84429866 +/- 0.000385         Node    74.10931 +/- 0.14
e   0.4251414 +/- 0.00349           Incl.   10.63461 +/- 0.12
P   0.78/283.36d           H 22.9   G  0.15   U  8.0  
q 0.48535231 +/- 0.00314    Q 1.20324501 +/- 0.00247
From 11 observations 2019 Nov. 8-10 (39.5 hr); mean residual 0".13
Residuals in arcseconds: 
191108 F52  .01-  .03-    191108 F52  .00   .01-    191110 807  .09+  .27-    
191108 F52  .23+  .06+    191108 F52  .09-  .21+    191110 807  .04-  .10+    
191108 F52  .24-  .01+    191109 291  .09+  .03+    191110 807  .05-  .15+    
191108 F52  .12+  .25-    191109 291  .09-  .01-    

Ephemerides (geocentric):
Date (UTC) HH   RA              Dec         delta   r     elong  mag " sig PA
---- -- -- --  -------------   -----------  ------ ------ -----  --- ---- ---
2019 11 13 09  05 02 39.381   -01 48 03.93  .18017 1.1440 146.4 20.8 8.59  82
2019 11 13 10  05 02 28.736   -01 48 24.67  .17992 1.1439 146.4 20.8 8.79  82
2019 11 13 11  05 02 18.056   -01 48 45.40  .17968 1.1438 146.5 20.7 8.99  82
2019 11 13 12  05 02 07.341   -01 49 06.11  .17944 1.1436 146.6 20.7 9.20  82
2019 11 13 13  05 01 56.590   -01 49 26.80  .17919 1.1435 146.6 20.7 9.40  82
2019 11 13 14  05 01 45.804   -01 49 47.47  .17895 1.1434 146.7 20.7 9.62  82
2019 11 13 15  05 01 34.982   -01 50 08.13  .17870 1.1432 146.7 20.7 9.83  82
2019 11 13 16  05 01 24.124   -01 50 28.77  .17846 1.1431 146.8 20.7 10.0  82
2019 11 13 17  05 01 13.230   -01 50 49.39  .17822 1.1429 146.9 20.7 10.3  82
2019 11 13 18  05 01 02.300   -01 51 09.99  .17797 1.1428 146.9 20.7 10.5  82
2019 11 13 19  05 00 51.335   -01 51 30.57  .17773 1.1427 147.0 20.7 10.7  82
2019 11 13 20  05 00 40.333   -01 51 51.14  .17749 1.1425 147.0 20.7 10.9  83
2019 11 13 21  05 00 29.294   -01 52 11.68  .17724 1.1424 147.1 20.7 11.2  83
2019 11 13 22  05 00 18.220   -01 52 32.21  .17700 1.1423 147.2 20.7 11.4  83
2019 11 13 23  05 00 07.109   -01 52 52.72  .17676 1.1421 147.2 20.7 11.6  83
2019 11 14 00  04 59 55.961   -01 53 13.21  .17652 1.1420 147.3 20.7 11.9  83
2019 11 14 01  04 59 44.776   -01 53 33.68  .17627 1.1419 147.3 20.7 12.1  83
2019 11 14 02  04 59 33.555   -01 53 54.13  .17603 1.1417 147.4 20.7 12.4  83
2019 11 14 03  04 59 22.297   -01 54 14.56  .17579 1.1416 147.5 20.7 12.6  83
2019 11 14 04  04 59 11.002   -01 54 34.97  .17555 1.1414 147.5 20.7 12.9  83
2019 11 14 05  04 58 59.669   -01 54 55.36  .17531 1.1413 147.6 20.7 13.1  83
2019 11 14 06  04 58 48.300   -01 55 15.73  .17507 1.1412 147.6 20.7 13.4  83
2019 11 14 07  04 58 36.893   -01 55 36.08  .17483 1.1410 147.7 20.7 13.6  83
2019 11 14 08  04 58 25.449   -01 55 56.41  .17459 1.1409 147.8 20.6 13.9  83
2019 11 14 09  04 58 13.967   -01 56 16.72  .17435 1.1408 147.8 20.6 14.2  83
2019 11 14 10  04 58 02.447   -01 56 37.00  .17411 1.1406 147.9 20.6 14.4  83
2019 11 14 11  04 57 50.890   -01 56 57.27  .17387 1.1405 147.9 20.6 14.7  83
2019 11 14 12  04 57 39.295   -01 57 17.52  .17363 1.1403 148.0 20.6 15.0  83
2019 11 14 13  04 57 27.662   -01 57 37.74  .17339 1.1402 148.1 20.6 15.3  83
2019 11 14 14  04 57 15.991   -01 57 57.94  .17315 1.1401 148.1 20.6 15.6  83
2019 11 14 15  04 57 04.281   -01 58 18.12  .17291 1.1399 148.2 20.6 15.8  83
2019 11 14 16  04 56 52.534   -01 58 38.28  .17267 1.1398 148.2 20.6 16.1  84
2019 11 14 17  04 56 40.748   -01 58 58.41  .17243 1.1396 148.3 20.6 16.4  84
2019 11 14 18  04 56 28.923   -01 59 18.53  .17219 1.1395 148.4 20.6 16.7  84
2019 11 14 19  04 56 17.060   -01 59 38.62  .17196 1.1394 148.4 20.6 17.0  84
2019 11 14 20  04 56 05.158   -01 59 58.68  .17172 1.1392 148.5 20.6 17.3  84
2019 11 14 21  04 55 53.217   -02 00 18.73  .17148 1.1391 148.5 20.6 17.6  84
2019 11 14 22  04 55 41.238   -02 00 38.75  .17124 1.1389 148.6 20.6 18.0  84
2019 11 14 23  04 55 29.219   -02 00 58.74  .17101 1.1388 148.7 20.6 18.3  84
2019 11 15 00  04 55 17.161   -02 01 18.72  .17077 1.1387 148.7 20.6 18.6  84
2019 11 15 01  04 55 05.064   -02 01 38.67  .17053 1.1385 148.8 20.6 18.9  84
2019 11 15 02  04 54 52.927   -02 01 58.59  .17030 1.1384 148.8 20.6 19.2  84
2019 11 15 03  04 54 40.751   -02 02 18.49  .17006 1.1382 148.9 20.6 19.6  84
2019 11 15 04  04 54 28.536   -02 02 38.37  .16982 1.1381 148.9 20.6 19.9  84
2019 11 15 05  04 54 16.280   -02 02 58.22  .16959 1.1380 149.0 20.6 20.2  84
2019 11 15 06  04 54 03.985   -02 03 18.05  .16935 1.1378 149.1 20.5 20.6  84
2019 11 15 07  04 53 51.650   -02 03 37.85  .16912 1.1377 149.1 20.5 20.9  84
2019 11 15 08  04 53 39.275   -02 03 57.63  .16888 1.1375 149.2 20.5 21.3  84